Time,TemperatureF,DewpointF,PressureIn,WindDirection,WindDirectionDegrees,WindSpeedMPH,WindSpeedGustMPH,Humidity,HourlyPrecipIn,Conditions,Clouds,dailyrainin,SoftwareType,DateUTC
2013-01-14 00:03:00,60.0,58.0,30.11,NNW,339,0.0,2.0,93,0.03,,,0.03,weatherlink.com 1.10,2013-01-14 05:03:00,
2013-01-14 00:18:00,59.6,58.0,30.11,East,91,0.0,4.0,95,0.04,,,0.04,weatherlink.com 1.10,2013-01-14 05:18:00,
2013-01-14 00:33:00,59.3,58.0,30.12,East,90,0.0,2.0,96,0.05,,,0.05,weatherlink.com 1.10,2013-01-14 05:33:00,
2013-01-14 00:48:00,59.1,58.0,30.12,East,90,0.0,2.0,96,0.05,,,0.06,weatherlink.com 1.10,2013-01-14 05:48:00,
2013-01-14 01:03:00,58.9,58.0,30.12,East,90,1.0,2.0,97,0.04,,,0.07,weatherlink.com 1.10,2013-01-14 06:03:00,
2013-01-14 01:18:00,58.9,58.0,30.12,North,9,0.0,2.0,97,0.05,,,0.09,weatherlink.com 1.10,2013-01-14 06:18:00,
2013-01-14 01:33:00,58.9,58.0,30.12,WSW,257,0.0,4.0,97,0.05,,,0.10,weatherlink.com 1.10,2013-01-14 06:33:00,
2013-01-14 01:48:00,58.8,58.0,30.13,WSW,257,0.0,0.0,97,0.05,,,0.11,weatherlink.com 1.10,2013-01-14 06:48:00,
2013-01-14 02:03:00,58.7,58.0,30.14,WSW,257,0.0,1.0,97,0.06,,,0.13,weatherlink.com 1.10,2013-01-14 07:03:00,
2013-01-14 02:18:00,58.7,58.0,30.12,WSW,248,0.0,0.0,97,0.08,,,0.17,weatherlink.com 1.10,2013-01-14 07:18:00,
2013-01-14 02:33:00,58.6,58.0,30.13,WSW,248,0.0,0.0,98,0.09,,,0.19,weatherlink.com 1.10,2013-01-14 07:33:00,
2013-01-14 02:48:00,58.6,58.0,30.12,West,259,0.0,3.0,98,0.09,,,0.20,weatherlink.com 1.10,2013-01-14 07:48:00,
2013-01-14 03:03:00,58.5,58.0,30.12,West,259,0.0,1.0,98,0.07,,,0.20,weatherlink.com 1.10,2013-01-14 08:03:00,
2013-01-14 03:18:00,58.4,58.0,30.12,West,259,0.0,1.0,98,0.03,,,0.20,weatherlink.com 1.10,2013-01-14 08:18:00,
2013-01-14 03:33:00,58.4,58.0,30.11,WSW,241,0.0,2.0,97,0.01,,,0.20,weatherlink.com 1.10,2013-01-14 08:33:00,
2013-01-14 03:48:00,58.4,58.0,30.10,WSW,241,0.0,1.0,97,0.00,,,0.20,weatherlink.com 1.10,2013-01-14 08:48:00,
2013-01-14 04:03:00,58.2,57.0,30.10,WSW,241,0.0,2.0,97,0.01,,,0.21,weatherlink.com 1.10,2013-01-14 09:03:00,
2013-01-14 04:18:00,58.4,58.0,30.09,SW,231,0.0,1.0,97,0.01,,,0.21,weatherlink.com 1.10,2013-01-14 09:18:00,
2013-01-14 04:33:00,58.4,58.0,30.09,SW,229,0.0,3.0,97,0.01,,,0.21,weatherlink.com 1.10,2013-01-14 09:33:00,
2013-01-14 04:48:00,58.5,58.0,30.09,SW,229,0.0,1.0,97,0.01,,,0.21,weatherlink.com 1.10,2013-01-14 09:48:00,
2013-01-14 05:03:00,58.5,58.0,30.09,SW,229,0.0,2.0,97,0.00,,,0.21,weatherlink.com 1.10,2013-01-14 10:03:00,
2013-01-14 05:18:00,58.6,58.0,30.09,SW,229,0.0,0.0,97,0.00,,,0.21,weatherlink.com 1.10,2013-01-14 10:18:00,
2013-01-14 05:33:00,58.6,58.0,30.09,SW,229,0.0,0.0,97,0.00,,,0.21,weatherlink.com 1.10,2013-01-14 10:33:00,
2013-01-14 05:48:00,58.6,58.0,30.09,SW,229,0.0,0.0,97,0.00,,,0.21,weatherlink.com 1.10,2013-01-14 10:48:00,
2013-01-14 06:03:00,58.6,58.0,30.10,SW,229,0.0,0.0,97,0.00,,,0.21,weatherlink.com 1.10,2013-01-14 11:03:00,
2013-01-14 06:18:00,58.6,58.0,30.09,SW,229,0.0,1.0,97,0.00,,,0.00,weatherlink.com 1.10,2013-01-14 11:18:00,
2013-01-14 06:33:00,58.7,58.0,30.10,SW,229,0.0,0.0,97,0.00,,,0.00,weatherlink.com 1.10,2013-01-14 11:33:00,
2013-01-14 06:48:00,58.7,58.0,30.10,SW,229,0.0,1.0,97,0.00,,,0.00,weatherlink.com 1.10,2013-01-14 11:48:00,
2013-01-14 07:03:00,58.6,58.0,30.11,SW,229,0.0,0.0,97,0.00,,,0.00,weatherlink.com 1.10,2013-01-14 12:03:00,
2013-01-14 07:18:00,58.6,58.0,30.11,SW,229,0.0,2.0,97,0.00,,,0.00,weatherlink.com 1.10,2013-01-14 12:18:00,
2013-01-14 07:33:00,58.5,58.0,30.11,SW,229,0.0,1.0,98,0.00,,,0.00,weatherlink.com 1.10,2013-01-14 12:33:00,
2013-01-14 07:48:00,58.6,58.0,30.13,SW,229,0.0,2.0,98,0.00,,,0.00,weatherlink.com 1.10,2013-01-14 12:48:00,
2013-01-14 08:03:00,58.6,58.0,30.13,SW,229,0.0,0.0,98,0.00,,,0.00,weatherlink.com 1.10,2013-01-14 13:03:00,
2013-01-14 08:18:00,58.5,58.0,30.12,SW,229,0.0,1.0,98,0.00,,,0.00,weatherlink.com 1.10,2013-01-14 13:18:00,
2013-01-14 08:33:00,58.6,58.0,30.14,SW,230,0.0,3.0,98,0.00,,,0.00,weatherlink.com 1.10,2013-01-14 13:33:00,
2013-01-14 08:48:00,58.6,58.0,30.14,SW,230,0.0,0.0,98,0.00,,,0.00,weatherlink.com 1.10,2013-01-14 13:48:00,
2013-01-14 09:03:00,58.6,58.0,30.14,SW,230,0.0,0.0,98,0.01,,,0.01,weatherlink.com 1.10,2013-01-14 14:03:00,
2013-01-14 09:18:00,58.7,58.0,30.15,SW,230,0.0,1.0,98,0.02,,,0.02,weatherlink.com 1.10,2013-01-14 14:18:00,
2013-01-14 09:33:00,58.8,58.0,30.15,SW,230,0.0,0.0,98,0.02,,,0.02,weatherlink.com 1.10,2013-01-14 14:33:00,
2013-01-14 09:48:00,58.9,58.0,30.16,SW,230,0.0,0.0,98,0.04,,,0.04,weatherlink.com 1.10,2013-01-14 14:48:00,
2013-01-14 10:03:00,58.9,58.0,30.16,SW,230,0.0,1.0,98,0.07,,,0.08,weatherlink.com 1.10,2013-01-14 15:03:00,
2013-01-14 10:18:00,59.0,59.0,30.16,SW,230,0.0,0.0,98,0.11,,,0.13,weatherlink.com 1.10,2013-01-14 15:18:00,
2013-01-14 10:33:00,59.1,59.0,30.15,SW,230,0.0,0.0,98,0.12,,,0.14,weatherlink.com 1.10,2013-01-14 15:33:00,
2013-01-14 10:48:00,59.1,59.0,30.15,SW,230,0.0,1.0,98,0.09,,,0.14,weatherlink.com 1.10,2013-01-14 15:48:00,
2013-01-14 11:03:00,59.3,59.0,30.15,SW,230,0.0,1.0,98,0.07,,,0.15,weatherlink.com 1.10,2013-01-14 16:03:00,
2013-01-14 11:19:00,59.3,59.0,30.14,SW,230,0.0,0.0,98,0.02,,,0.15,weatherlink.com 1.10,2013-01-14 16:19:00,
2013-01-14 11:34:00,59.4,59.0,30.14,SW,230,0.0,1.0,98,0.02,,,0.16,weatherlink.com 1.10,2013-01-14 16:34:00,
2013-01-14 11:49:00,59.7,59.0,30.12,SW,230,0.0,1.0,98,0.02,,,0.16,weatherlink.com 1.10,2013-01-14 16:49:00,
2013-01-14 12:04:00,59.9,60.0,30.11,East,81,0.0,0.0,99,0.02,,,0.17,weatherlink.com 1.10,2013-01-14 17:04:00,
2013-01-14 12:19:00,60.0,60.0,30.10,East,81,0.0,3.0,99,0.02,,,0.17,weatherlink.com 1.10,2013-01-14 17:19:00,
2013-01-14 12:34:00,60.0,60.0,30.10,East,81,0.0,0.0,99,0.02,,,0.18,weatherlink.com 1.10,2013-01-14 17:34:00,
2013-01-14 12:49:00,59.6,59.0,30.10,North,5,0.0,2.0,98,0.02,,,0.18,weatherlink.com 1.10,2013-01-14 17:49:00,
2013-01-14 13:04:00,58.7,58.0,30.10,NW,325,0.0,2.0,98,0.01,,,0.18,weatherlink.com 1.10,2013-01-14 18:04:00,
2013-01-14 13:19:00,57.6,57.0,30.09,NW,319,0.0,2.0,97,0.01,,,0.18,weatherlink.com 1.10,2013-01-14 18:19:00,
2013-01-14 13:34:00,56.9,56.0,30.09,NW,319,0.0,2.0,97,0.02,,,0.20,weatherlink.com 1.10,2013-01-14 18:34:00,
2013-01-14 13:49:00,56.6,56.0,30.10,NW,319,1.0,1.0,98,0.05,,,0.23,weatherlink.com 1.10,2013-01-14 18:49:00,
2013-01-14 14:04:00,56.3,56.0,30.10,NW,319,0.0,1.0,98,0.07,,,0.25,weatherlink.com 1.10,2013-01-14 19:04:00,
2013-01-14 14:19:00,56.2,56.0,30.10,NW,319,0.0,1.0,98,0.08,,,0.27,weatherlink.com 1.10,2013-01-14 19:19:00,
2013-01-14 14:34:00,56.3,56.0,30.11,NW,319,0.0,0.0,98,0.10,,,0.30,weatherlink.com 1.10,2013-01-14 19:34:00,
2013-01-14 14:49:00,56.1,56.0,30.11,NW,319,0.0,0.0,98,0.09,,,0.32,weatherlink.com 1.10,2013-01-14 19:49:00,
2013-01-14 15:04:00,55.9,55.0,30.12,NW,319,0.0,0.0,98,0.10,,,0.35,weatherlink.com 1.10,2013-01-14 20:04:00,
2013-01-14 15:19:00,55.7,55.0,30.11,NW,319,0.0,0.0,98,0.11,,,0.38,weatherlink.com 1.10,2013-01-14 20:19:00,
2013-01-14 15:34:00,55.8,55.0,30.12,NW,319,0.0,1.0,98,0.11,,,0.41,weatherlink.com 1.10,2013-01-14 20:34:00,
2013-01-14 15:49:00,56.1,56.0,30.12,WSW,254,0.0,3.0,98,0.09,,,0.41,weatherlink.com 1.10,2013-01-14 20:49:00,
2013-01-14 16:04:00,56.3,56.0,30.13,WSW,254,0.0,2.0,99,0.05,,,0.41,weatherlink.com 1.10,2013-01-14 21:04:00,
2013-01-14 16:19:00,56.6,56.0,30.14,WSW,254,0.0,1.0,99,0.03,,,0.42,weatherlink.com 1.10,2013-01-14 21:19:00,
2013-01-14 16:34:00,56.4,56.0,30.14,WSW,254,0.0,0.0,98,0.01,,,0.42,weatherlink.com 1.10,2013-01-14 21:34:00,
2013-01-14 16:49:00,56.3,56.0,30.14,WSW,254,0.0,1.0,99,0.01,,,0.42,weatherlink.com 1.10,2013-01-14 21:49:00,
2013-01-14 17:04:00,56.4,56.0,30.14,WSW,254,0.0,1.0,99,0.01,,,0.42,weatherlink.com 1.10,2013-01-14 22:04:00,
2013-01-14 17:19:00,56.7,57.0,30.15,WSW,254,0.0,1.0,99,0.00,,,0.42,weatherlink.com 1.10,2013-01-14 22:19:00,
2013-01-14 17:34:00,56.8,57.0,30.15,WSW,254,0.0,2.0,99,0.01,,,0.43,weatherlink.com 1.10,2013-01-14 22:34:00,
2013-01-14 17:49:00,57.1,57.0,30.15,WSW,254,0.0,2.0,99,0.01,,,0.43,weatherlink.com 1.10,2013-01-14 22:49:00,
2013-01-14 18:04:00,57.3,57.0,30.16,WSW,253,0.0,4.0,99,0.01,,,0.43,weatherlink.com 1.10,2013-01-14 23:04:00,
2013-01-14 18:19:00,57.4,57.0,30.16,WSW,246,0.0,2.0,99,0.03,,,0.45,weatherlink.com 1.10,2013-01-14 23:19:00,
2013-01-14 18:34:00,57.4,57.0,30.16,WSW,246,0.0,0.0,99,0.03,,,0.46,weatherlink.com 1.10,2013-01-14 23:34:00,
2013-01-14 18:49:00,57.5,57.0,30.15,WSW,246,0.0,0.0,99,0.03,,,0.46,weatherlink.com 1.10,2013-01-14 23:49:00,
2013-01-14 19:04:00,57.5,57.0,30.16,WSW,246,0.0,0.0,99,0.03,,,0.46,weatherlink.com 1.10,2013-01-15 00:04:00,
2013-01-14 19:20:00,57.5,57.0,30.16,WSW,246,0.0,0.0,99,0.02,,,0.47,weatherlink.com 1.10,2013-01-15 00:20:00,
2013-01-14 19:34:00,55.2,54.0,30.16,WSW,254,1.0,7.0,97,0.01,,,0.47,weatherlink.com 1.10,2013-01-15 00:34:00,
2013-01-14 19:49:00,52.6,52.0,30.17,West,273,3.0,9.0,97,0.03,,,0.49,weatherlink.com 1.10,2013-01-15 00:49:00,
2013-01-14 20:04:00,51.7,51.0,30.17,WSW,256,0.0,7.0,97,0.04,,,0.50,weatherlink.com 1.10,2013-01-15 01:04:00,
2013-01-14 20:19:00,51.7,51.0,30.17,SE,127,0.0,4.0,98,0.07,,,0.54,weatherlink.com 1.10,2013-01-15 01:19:00,
2013-01-14 20:34:00,51.7,51.0,30.18,SE,134,0.0,2.0,98,0.07,,,0.54,weatherlink.com 1.10,2013-01-15 01:34:00,
2013-01-14 20:49:00,51.5,51.0,30.18,SE,134,0.0,1.0,98,0.06,,,0.55,weatherlink.com 1.10,2013-01-15 01:49:00,
2013-01-14 21:19:00,47.2,46.0,30.21,WNW,282,3.0,15.0,95,0.05,,,0.59,weatherlink.com 1.10,2013-01-15 02:19:00,
2013-01-14 21:34:00,46.1,45.0,30.22,West,261,2.0,15.0,96,0.07,,,0.61,weatherlink.com 1.10,2013-01-15 02:34:00,
2013-01-14 21:49:00,45.6,45.0,30.21,SSW,201,1.0,12.0,96,0.07,,,0.63,weatherlink.com 1.10,2013-01-15 02:49:00,
2013-01-14 22:04:00,45.6,45.0,30.21,SW,236,1.0,5.0,97,0.05,,,0.63,weatherlink.com 1.10,2013-01-15 03:04:00,
2013-01-14 22:19:00,46.0,45.0,30.21,WSW,252,0.0,7.0,97,0.04,,,0.63,weatherlink.com 1.10,2013-01-15 03:19:00,
2013-01-14 22:34:00,46.0,45.0,30.21,West,262,0.0,4.0,97,0.02,,,0.63,weatherlink.com 1.10,2013-01-15 03:34:00,
2013-01-14 22:49:00,45.7,45.0,30.20,SE,131,0.0,5.0,97,0.00,,,0.63,weatherlink.com 1.10,2013-01-15 03:49:00,
2013-01-14 23:04:00,45.8,45.0,30.20,SE,131,0.0,0.0,97,0.00,,,0.63,weatherlink.com 1.10,2013-01-15 04:04:00,
2013-01-14 23:19:00,45.5,45.0,30.20,SE,131,0.0,0.0,97,0.00,,,0.63,weatherlink.com 1.10,2013-01-15 04:19:00,
2013-01-14 23:35:00,45.2,44.0,30.20,SE,131,0.0,0.0,97,0.00,,,0.63,weatherlink.com 1.10,2013-01-15 04:35:00,
2013-01-14 23:50:00,45.0,45.0,30.20,SE,131,0.0,1.0,98,0.00,,,0.63,weatherlink.com 1.10,2013-01-15 04:50:00,